Location: Notre Dame Regional High School Observatory
(37.3056°N, 89.6097°W)
Time: 08:48:31
(UTC-05:00)

Okean 2 Rocket - Visible Passes

Search period start: 23 July 2014 00:00
Search period end: 02 August 2014 00:00
Orbit: 619 x 643 km, 82.5° (Epoch: 22 July)

Date Brightness Start Highest point End Pass type
(mag) Time Alt. Az. Time Alt. Az. Time Alt. Az.
24 Jul 6.0 20:39:53 10° SW 20:43:14 21° WNW 20:46:37 10° NNW visible
25 Jul 6.9 21:04:12 10° WNW 21:04:38 10° WNW 21:05:04 10° WNW visible
29 Jul 6.9 05:02:14 10° ENE 05:03:08 11° ENE 05:04:01 10° E visible
30 Jul 6.1 05:21:02 10° NNE 05:24:31 22° ENE 05:28:00 10° SE visible
